Milwaukee, WI

9:37 PM CDT on May 27, 2017 (GMT -0500)
Gen Mitchell International

Weather History for KMKE - July, 2013

Change the Weather History Date:

Thursday, July 18, 2013

  Actual Average Record
Temperature  
Mean Temperature 87 °F 72 °F  
Max Temperature 95 °F 80 °F 97 °F (1991)
Min Temperature 79 °F 64 °F 49 °F (1979)
Degree Days  
Heating Degree Days 0 0  
Month to date heating degree days 3 4  
Since 1 June heating degree days 90 88  
Since 1 July heating degree days 3 4  
Cooling Degree Days 22 7  
Month to date cooling degree days 178 125  
Year to date cooling degree days 316 275  
Since 1 June cooling degree days 277 245  
Growing Degree Days 37 (Base 50)    
Moisture  
Dew Point 71 °F    
Average Humidity 61    
Maximum Humidity 79    
Minimum Humidity 43    
Precipitation  
Precipitation 0.00 in 0.11 in 2.72 in (1959)
Month to date precipitation 0.60 2.19  
Year to date precipitation 25.91 18.73  
Snow  
Snow 0.00 in 0.00 in 0.00 in ()
Month to date snowfall 0.0 0.0  
Since 1 June snowfall 0.0 0.0  
Since 1 July snowfall 0.0 0.0  
Snow Depth 0.00 in    
Sea Level Pressure  
Sea Level Pressure 30.03 in    
Wind  
Wind Speed 10 mph (WSW)    
Max Wind Speed 20 mph    
Max Gust Speed 28 mph    
Visibility 10 miles    
Events      
T = Trace of Precipitation, MM = Missing Value Source: NWS Daily Summary

Daily Weather History Graph

Daily Weather History Graph

Search for Another Location

Airport or City:

Trip Planner

Search our weather history database for the weather conditions in past years. The results will help you decide how hot, cold, wet, or windy it might be!

Date:

Astronomy

Jul. 18, 2013 Rise Set
Actual Time 5:29 AM CDT 8:26 PM CDT
Civil Twilight 4:55 AM CDT 8:59 PM CDT
Nautical Twilight 4:12 AM CDT 9:42 PM CDT
Astronomical Twilight 3:21 AM CDT 10:32 PM CDT
Moon 4:21 PM CDT (7/18) 1:20 AM CDT (7/18)
Length of Visible Light 16h 04m
Length of Day
14h 57m
Waxing Gibbous, 77% of the Moon is Illuminated
Jul 18
Waxing Gibbous
Jul 22
Full
Jul 29
Last Quarter
Aug 6
New
Aug 14
First Quarter

Hourly Weather History & Observations

Time (CDT) Temp. Heat Index Dew Point Humidity Pressure Visibility Wind Dir Wind Speed Gust Speed Precip Events Conditions
12:52 AM 82.0 °F 85.9 °F 70.0 °F 67% 30.15 in 10.0 mi WSW 5.8 mph - N/A   Partly Cloudy
1:52 AM 81.0 °F 84.4 °F 70.0 °F 69% 30.14 in 10.0 mi WSW 5.8 mph - N/A   Partly Cloudy
2:52 AM 80.1 °F 83.8 °F 72.0 °F 76% 30.14 in 10.0 mi WSW 8.1 mph - N/A   Clear
3:52 AM 80.1 °F 83.8 °F 72.0 °F 76% 30.14 in 10.0 mi WSW 6.9 mph - N/A   Clear
4:52 AM 79.0 °F - 72.0 °F 79% 30.12 in 10.0 mi West 5.8 mph - N/A   Clear
5:52 AM 79.0 °F - 72.0 °F 79% 30.12 in 10.0 mi West 3.5 mph - N/A   Partly Cloudy
6:52 AM 81.0 °F 85.2 °F 72.0 °F 74% 30.11 in 10.0 mi WSW 3.5 mph - N/A   Clear
7:52 AM 84.0 °F 89.6 °F 72.0 °F 67% 30.10 in 10.0 mi West 6.9 mph - N/A   Clear
8:52 AM 88.0 °F 94.7 °F 72.0 °F 59% 30.09 in 10.0 mi West 8.1 mph - N/A   Clear
9:52 AM 90.0 °F 96.4 °F 71.1 °F 54% 30.09 in 10.0 mi WSW 6.9 mph - N/A   Clear
10:52 AM 91.0 °F 97.6 °F 71.1 °F 52% 30.08 in 10.0 mi West 9.2 mph - N/A   Partly Cloudy
11:52 AM 93.0 °F 99.0 °F 70.0 °F 47% 30.07 in 10.0 mi SW 10.4 mph - N/A   Partly Cloudy
12:52 PM 93.9 °F 98.6 °F 68.0 °F 43% 30.05 in 10.0 mi WSW 13.8 mph 20.7 mph N/A   Scattered Clouds
1:52 PM 93.9 °F 99.1 °F 69.1 °F 44% 30.02 in 10.0 mi SW 15.0 mph 20.7 mph N/A   Scattered Clouds
2:52 PM 95.0 °F 100.7 °F 69.1 °F 43% 29.99 in 10.0 mi WSW 12.7 mph 27.6 mph N/A   Scattered Clouds
3:52 PM 93.9 °F 102.1 °F 72.0 °F 49% 29.98 in 10.0 mi SW 16.1 mph 23.0 mph N/A   Scattered Clouds
4:52 PM 93.9 °F 100.3 °F 70.0 °F 46% 29.95 in 10.0 mi SW 17.3 mph - N/A   Scattered Clouds
5:52 PM 93.0 °F 97.4 °F 68.0 °F 44% 29.93 in 10.0 mi WSW 16.1 mph 23.0 mph N/A   Scattered Clouds
6:52 PM 91.9 °F 97.4 °F 70.0 °F 48% 29.92 in 10.0 mi SW 13.8 mph 21.9 mph N/A   Scattered Clouds
7:52 PM 90.0 °F 94.5 °F 69.1 °F 50% 29.91 in 10.0 mi SW 13.8 mph 20.7 mph N/A   Scattered Clouds
8:52 PM 87.1 °F 92.8 °F 71.1 °F 59% 29.90 in 10.0 mi SW 9.2 mph - N/A   Partly Cloudy
9:52 PM 84.9 °F 90.1 °F 71.1 °F 63% 29.91 in 10.0 mi SW 11.5 mph - N/A   Clear
10:52 PM 82.9 °F 88.0 °F 72.0 °F 69% 29.91 in 10.0 mi SW 10.4 mph - N/A   Clear
11:52 PM 82.9 °F 88.0 °F 72.0 °F 69% 29.90 in 10.0 mi SW 10.4 mph - N/A   Clear